When you browse on this site, cookies collect data to enhance your experience and personalize the content and advertising you see.
Visit our Privacy Policy to learn more. By continuing to use the site, you agree to this use of cookies and data.
  • In France
  • List of Countries
  • For 7 days
  • Water Temperature
  • Satellite Maps
  • Weather Map
  • Weather Widgets
  • user-avatar
    Login

    Hourly Weather Melbourne

    Today, 21 March, Thursday

    Time Temperature Precipitation Wind Pressure Humidity
    00:00 +21°C° 0 mm 2 mps 760 mmHg 90%
    01:00 +21°C° 0 mm 1 mps 760 mmHg 91%
    02:00 +21°C° 0 mm 1 mps 759 mmHg 91%
    03:00 +20°C° 0 mm 2 mps 759 mmHg 91%
    04:00 +21°C° 0 mm 1 mps 759 mmHg 91%
    05:00 +21°C° 0 mm 1 mps 759 mmHg 91%
    06:00 +21°C° 0 mm 1 mps 759 mmHg 91%
    07:00 +21°C° 0 mm 1 mps 760 mmHg 90%
    08:00 +22°C° 0 mm 1 mps 760 mmHg 85%
    09:00 +23°C° 0 mm 1 mps 760 mmHg 80%
    10:00 +24°C° 0 mm 1 mps 760 mmHg 74%
    11:00 +26°C° 0 mm 1 mps 760 mmHg 67%
    12:00 +27°C° 0 mm 1 mps 759 mmHg 60%
    13:00 +29°C° 0 mm 1 mps 759 mmHg 53%
    14:00 +29°C° 0 mm 2 mps 759 mmHg 53%
    15:00 +29°C° 0 mm 3 mps 759 mmHg 53%
    16:00 +29°C° 0 mm 3 mps 758 mmHg 52%
    17:00 +28°C° 0 mm 3 mps 759 mmHg 58%
    18:00 +26°C° 0 mm 3 mps 759 mmHg 64%
    19:00 +25°C° 0 mm 3 mps 759 mmHg 70%
    20:00 +24°C° 0 mm 3 mps 759 mmHg 73%
    21:00 +24°C° 0 mm 3 mps 760 mmHg 77%
    22:00 +23°C° 0 mm 2 mps 760 mmHg 81%
    23:00 +21°C° 0 mm 2 mps 760 mmHg 83%

    Tomorrow, 22 March, Friday

    Time Temperature Precipitation Wind Pressure Humidity
    00:00 +21°C° 0 mm 2 mps 760 mmHg 85%
    01:00 +20°C° 0 mm 2 mps 760 mmHg 87%
    02:00 +20°C° 0 mm 2 mps 760 mmHg 88%
    03:00 +20°C° 0 mm 1 mps 759 mmHg 89%
    04:00 +20°C° 0 mm 1 mps 759 mmHg 90%
    05:00 +20°C° 0 mm 1 mps 759 mmHg 90%
    06:00 +18°C° 0 mm 0 mps 760 mmHg 90%
    07:00 +18°C° 0 mm 0 mps 760 mmHg 90%
    08:00 +20°C° 0.1 mm 0 mps 760 mmHg 80%
    09:00 +22°C° 0.1 mm 0 mps 760 mmHg 69%
    10:00 +25°C° 0.1 mm 0 mps 760 mmHg 59%
    11:00 +29°C° 0 mm 1 mps 759 mmHg 52%
    12:00 +31°C° 0 mm 1 mps 759 mmHg 45%
    13:00 +33°C° 0 mm 1 mps 758 mmHg 38%
    14:00 +33°C° 0 mm 1 mps 758 mmHg 36%
    15:00 +34°C° 0 mm 2 mps 757 mmHg 34%
    16:00 +35°C° 0 mm 2 mps 756 mmHg 33%
    17:00 +32°C° 0 mm 2 mps 756 mmHg 37%
    18:00 +31°C° 0 mm 2 mps 757 mmHg 41%
    19:00 +29°C° 0 mm 2 mps 757 mmHg 45%
    20:00 +28°C° 0 mm 2 mps 757 mmHg 50%
    21:00 +27°C° 0 mm 2 mps 757 mmHg 55%
    22:00 +26°C° 0 mm 2 mps 757 mmHg 60%
    23:00 +25°C° 0 mm 2 mps 757 mmHg 61%

    Day after tomorrow, 23 March, Saturday

    Time Temperature Precipitation Wind Pressure Humidity
    00:00 +25°C° 0 mm 2 mps 756 mmHg 62%
    01:00 +24°C° 0 mm 2 mps 756 mmHg 62%
    02:00 +25°C° 0.1 mm 3 mps 756 mmHg 60%
    03:00 +25°C° 0.1 mm 3 mps 755 mmHg 57%
    04:00 +26°C° 0.1 mm 4 mps 755 mmHg 55%
    05:00 +26°C° 0.1 mm 4 mps 755 mmHg 53%
    06:00 +26°C° 0.1 mm 5 mps 755 mmHg 52%
    07:00 +27°C° 0.1 mm 5 mps 754 mmHg 50%
    08:00 +27°C° 0 mm 6 mps 754 mmHg 47%
    09:00 +28°C° 0 mm 6 mps 754 mmHg 45%
    10:00 +29°C° 0 mm 7 mps 753 mmHg 42%
    11:00 +32°C° 0 mm 7 mps 753 mmHg 38%
    12:00 +33°C° 0 mm 7 mps 753 mmHg 34%
    13:00 +35°C° 0 mm 7 mps 752 mmHg 30%
    14:00 +36°C° 0 mm 6 mps 752 mmHg 28%
    15:00 +36°C° 0 mm 5 mps 752 mmHg 25%
    16:00 +37°C° 0 mm 5 mps 751 mmHg 22%
    17:00 +34°C° 0 mm 4 mps 752 mmHg 33%
    18:00 +30°C° 0 mm 4 mps 753 mmHg 43%
    19:00 +27°C° 0 mm 3 mps 753 mmHg 54%
    20:00 +26°C° 0 mm 3 mps 754 mmHg 58%
    21:00 +25°C° 0 mm 2 mps 755 mmHg 63%
    22:00 +24°C° 0 mm 1 mps 756 mmHg 67%
    23:00 +24°C° 0 mm 1 mps 756 mmHg 68%

    24 March, Sunday

    Time Temperature Precipitation Wind Pressure Humidity
    00:00 +24°C° 0 mm 1 mps 756 mmHg 69%
    01:00 +23°C° 0 mm 1 mps 756 mmHg 69%
    02:00 +23°C° 0 mm 1 mps 756 mmHg 70%
    03:00 +23°C° 0 mm 1 mps 756 mmHg 72%
    04:00 +22°C° 0 mm 1 mps 756 mmHg 73%
    05:00 +22°C° 0 mm 1 mps 756 mmHg 73%
    06:00 +22°C° 0 mm 1 mps 756 mmHg 74%
    07:00 +22°C° 0 mm 1 mps 756 mmHg 75%
    08:00 +24°C° 0 mm 2 mps 756 mmHg 66%
    09:00 +26°C° 0 mm 2 mps 756 mmHg 57%
    10:00 +27°C° 0 mm 3 mps 756 mmHg 49%
    11:00 +28°C° 0 mm 3 mps 755 mmHg 45%
    12:00 +29°C° 0 mm 4 mps 755 mmHg 41%
    13:00 +30°C° 0 mm 4 mps 754 mmHg 38%
    14:00 +30°C° 0 mm 5 mps 754 mmHg 39%
    15:00 +30°C° 0 mm 6 mps 753 mmHg 40%
    16:00 +30°C° 0 mm 6 mps 752 mmHg 41%
    17:00 +29°C° 0.3 mm 7 mps 752 mmHg 46%
    18:00 +28°C° 0.3 mm 8 mps 752 mmHg 52%
    19:00 +27°C° 0.3 mm 8 mps 752 mmHg 58%
    20:00 +26°C° 0.3 mm 8 mps 752 mmHg 62%
    21:00 +24°C° 0.3 mm 8 mps 752 mmHg 67%
    22:00 +24°C° 0.3 mm 8 mps 751 mmHg 71%
    23:00 +24°C° 0.1 mm 9 mps 751 mmHg 70%

    25 March, Monday

    Time Temperature Precipitation Wind Pressure Humidity
    00:00 +24°C° 0.1 mm 9 mps 750 mmHg 68%
    01:00 +24°C° 0.1 mm 10 mps 749 mmHg 67%
    02:00 +24°C° 1 mm 9 mps 750 mmHg 66%
    03:00 +23°C° 1 mm 8 mps 750 mmHg 66%
    04:00 +22°C° 1 mm 7 mps 750 mmHg 66%
    05:00 +21°C° 0 mm 6 mps 751 mmHg 64%
    06:00 +20°C° 0 mm 6 mps 751 mmHg 62%
    07:00 +19°C° 0 mm 5 mps 752 mmHg 61%
    08:00 +19°C° 0 mm 6 mps 753 mmHg 55%
    09:00 +18°C° 0 mm 7 mps 753 mmHg 50%
    10:00 +18°C° 0 mm 8 mps 754 mmHg 44%
    11:00 +18°C° 0 mm 8 mps 754 mmHg 40%
    12:00 +18°C° 0 mm 8 mps 755 mmHg 36%
    13:00 +18°C° 0 mm 9 mps 755 mmHg 32%
    14:00 +18°C° 0 mm 8 mps 755 mmHg 31%
    15:00 +18°C° 0 mm 7 mps 755 mmHg 30%
    16:00 +18°C° 0 mm 7 mps 756 mmHg 29%
    17:00 +17°C° 0 mm 6 mps 756 mmHg 31%
    18:00 +17°C° 0 mm 6 mps 757 mmHg 33%
    19:00 +16°C° 0 mm 5 mps 758 mmHg 34%
    20:00 +15°C° 0 mm 5 mps 759 mmHg 38%
    21:00 +14°C° 0 mm 5 mps 759 mmHg 41%
    22:00 +14°C° 0 mm 5 mps 760 mmHg 44%
    23:00 +13°C° 0 mm 5 mps 760 mmHg 45%

    26 March, Tuesday

    Time Temperature Precipitation Wind Pressure Humidity
    00:00 +13°C° 0 mm 5 mps 760 mmHg 46%
    01:00 +13°C° 0 mm 5 mps 760 mmHg 47%
    02:00 +12°C° 0 mm 5 mps 760 mmHg 50%
    03:00 +12°C° 0 mm 5 mps 760 mmHg 53%
    04:00 +12°C° 0 mm 5 mps 760 mmHg 56%
    05:00 +12°C° 0 mm 5 mps 760 mmHg 58%
    06:00 +12°C° 0 mm 5 mps 761 mmHg 60%
    07:00 +12°C° 0 mm 5 mps 762 mmHg 62%
    08:00 +13°C° 0 mm 5 mps 762 mmHg 57%
    09:00 +15°C° 0 mm 6 mps 762 mmHg 53%
    10:00 +16°C° 0 mm 6 mps 762 mmHg 49%
    11:00 +17°C° 0 mm 6 mps 762 mmHg 46%
    12:00 +19°C° 0 mm 5 mps 762 mmHg 44%
    13:00 +20°C° 0 mm 5 mps 762 mmHg 42%
    14:00 +20°C° 0 mm 5 mps 762 mmHg 43%
    15:00 +20°C° 0 mm 5 mps 762 mmHg 45%
    16:00 +20°C° 0 mm 4 mps 762 mmHg 47%
    17:00 +19°C° 0 mm 4 mps 763 mmHg 51%
    18:00 +18°C° 0 mm 4 mps 764 mmHg 56%
    19:00 +17°C° 0 mm 3 mps 765 mmHg 60%
    20:00 +17°C° 0 mm 3 mps 765 mmHg 63%
    21:00 +16°C° 0 mm 3 mps 766 mmHg 66%
    22:00 +14°C° 0 mm 3 mps 766 mmHg 70%
    23:00 +15°C° 0 mm 2 mps 766 mmHg 71%
    Show more